Vorticity
9 9 8 8 8 8 9 10 11 11 11 11 12 12 13 12 11 9 7 6 4 4 6 10 12 11 10 10 10 11 10 10 8 7 8 5 5 6 4 4 4 4 4 4 5 4 4 6 8 11 15 19 18 11 4 3 6 8 8 8 8 10 11 10 8 7 6 5 5 6 6 6 7 6 6 5 5 6 7 8 9 9 11 12 9 9 10 10
9 9 8 8 8 8 8 8 9 10 11 11 11 11 12 13 13 12 10 8 7 5 4 5 8 12 12 11 10 10 11 11 9 11 9 4 5 6 5 5 4 5 5 4 5 4 4 4 4 6 11 16 19 17 11 5 4 6 8 8 10 13 12 10 9 7 7 7 5 5 5 5 6 6 6 6 5 5 5 7 8 9 10 10 9 8 10 10
9 8 9 9 8 8 7 7 7 8 10 11 12 12 11 12 12 13 14 12 10 8 6 5 4 7 11 13 12 10 11 11 11 13 9 5 6 6 6 6 5 5 5 5 5 5 4 5 4 4 7 13 18 19 16 11 7 5 5 8 13 13 10 11 12 8 6 7 6 5 4 5 5 6 5 5 5 5 5 6 8 8 8 8 8 9 11 10
11 9 8 8 8 8 7 7 6 6 7 8 10 12 12 12 12 12 13 14 13 11 9 7 5 4 5 10 13 12 10 10 12 13 10 9 8 5 6 6 5 5 5 5 5 5 5 5 5 5 5 9 14 18 19 16 11 7 3 6 11 12 11 11 11 9 7 6 6 5 5 4 4 4 5 5 5 5 5 6 7 7 7 7 7 10 12 8
11 11 9 8 8 8 8 7 6 5 5 6 7 9 11 12 13 13 12 13 14 14 13 10 8 6 4 4 9 13 13 10 11 13 11 11 10 6 6 6 6 6 5 4 4 5 6 6 6 5 5 6 9 15 21 19 15 13 5 2 6 9 11 11 9 10 9 7 6 6 6 5 4 4 4 5 5 5 5 5 6 6 6 6 7 9 9 5
10 11 11 10 8 8 8 8 7 6 5 5 5 6 7 9 12 13 13 13 12 14 15 13 11 10 8 5 3 8 13 13 10 11 12 12 11 9 6 5 6 6 6 5 4 4 5 6 6 6 6 6 7 11 18 20 17 18 9 1 5 8 9 11 10 9 8 8 7 6 6 5 4 5 4 4 4 5 5 5 6 6 6 7 9 8 5 3
11 11 12 11 9 9 8 8 8 7 6 4 4 5 5 6 7 10 12 14 14 13 13 15 14 12 11 9 4 3 7 14 14 11 11 12 13 11 7 6 5 5 6 6 5 5 5 6 6 6 5 6 7 8 14 17 17 20 14 3 4 6 6 8 10 8 8 9 7 5 6 5 5 5 4 4 4 4 5 6 6 6 6 7 8 6 2 1
12 12 12 12 11 10 9 8 8 8 7 6 4 3 4 5 5 6 8 11 14 14 13 13 15 15 14 12 9 4 2 11 16 13 11 10 12 13 9 8 6 5 6 6 6 5 4 5 6 5 5 5 6 6 9 11 14 21 19 7 3 4 4 6 7 7 9 9 6 5 7 6 5 5 5 6 5 5 5 5 6 6 7 7 6 4 3 4
11 12 12 12 12 12 11 9 9 8 8 7 6 4 3 3 4 5 6 7 10 13 15 14 13 15 15 14 13 9 3 6 10 12 13 11 10 12 11 9 8 6 5 6 6 6 4 5 6 5 5 5 4 4 5 6 9 19 24 16 6 2 4 5 4 6 8 9 6 5 6 6 5 5 6 5 5 5 5 5 5 6 9 9 6 5 9 10
11 12 12 13 13 12 13 12 10 9 9 8 7 6 5 3 3 4 5 6 7 10 13 15 14 13 15 16 15 12 9 8 7 8 14 14 11 11 11 10 9 7 6 6 7 7 6 5 6 6 5 4 4 4 4 4 5 13 21 23 16 4 2 4 4 5 6 8 8 6 6 6 5 6 6 5 5 5 5 6 7 6 9 11 9 7 8 7
9 11 12 14 14 13 13 14 13 11 10 9 8 7 7 6 4 4 4 5 6 7 9 13 15 14 14 15 16 17 14 12 7 4 9 15 14 11 11 11 10 8 6 6 6 7 7 5 5 6 5 4 4 4 4 4 4 8 13 22 25 13 3 2 4 6 5 7 10 8 6 5 5 6 6 5 5 5 6 8 9 8 7 9 10 8 5 4
7 7 9 11 15 16 14 13 14 14 12 10 10 9 8 7 7 6 5 6 6 6 8 10 14 15 14 14 18 18 14 12 10 4 3 11 15 13 11 11 11 9 8 7 6 7 8 8 5 5 6 5 5 4 4 5 4 6 9 16 23 22 13 3 2 6 5 6 8 8 8 6 6 6 5 6 6 7 6 6 8 9 8 8 7 4 4 6
7 6 6 7 10 15 16 15 13 13 14 13 11 10 9 8 8 7 7 7 7 7 7 8 11 15 16 15 18 17 12 14 14 9 3 6 14 16 12 11 11 10 9 8 7 5 7 9 7 6 6 5 5 3 3 5 5 4 6 10 14 22 23 9 2 5 5 5 6 7 8 7 7 6 6 7 6 7 7 7 10 12 11 10 9 5 4 6
7 6 6 5 5 8 13 17 16 13 13 14 13 12 11 10 9 8 8 9 9 7 6 7 8 12 16 14 14 16 15 17 18 15 9 5 8 15 16 12 10 11 10 9 8 6 6 7 8 7 6 6 5 4 3 3 4 4 4 7 7 16 25 16 5 3 3 6 6 6 7 6 8 7 6 8 8 8 6 7 8 6 6 6 9 11 8 6
8 7 7 7 6 5 7 10 14 14 14 14 14 12 11 11 10 9 9 9 11 9 5 6 6 9 14 12 12 16 15 19 21 15 10 6 4 10 15 15 11 10 10 9 8 7 6 6 7 7 6 7 6 4 4 3 3 4 3 5 5 10 21 19 11 5 1 5 5 4 6 5 7 7 6 8 9 9 7 7 6 4 4 4 7 10 8 6
9 9 8 8 7 7 6 6 7 9 11 13 14 13 11 11 11 10 10 9 11 11 7 5 6 7 10 11 13 15 15 16 16 13 11 9 6 6 11 15 14 11 10 9 9 7 6 6 7 6 4 6 9 5 4 4 2 3 3 4 4 8 14 16 16 10 1 3 4 2 4 4 5 6 7 8 6 8 8 6 7 7 6 8 8 8 8 6
11 10 10 10 8 8 8 8 7 6 5 7 10 12 12 11 10 10 10 9 10 13 10 5 5 7 8 10 13 13 13 14 15 16 16 13 10 6 6 12 14 13 10 9 9 8 7 6 6 7 5 4 7 7 5 3 3 3 4 4 3 6 9 11 17 16 6 2 3 3 4 4 4 3 5 7 5 4 5 6 6 5 5 8 10 9 10 8
11 11 11 11 11 10 9 9 9 8 7 6 6 8 9 11 11 10 9 9 8 12 13 7 4 7 7 9 13 13 12 14 18 19 17 14 14 10 7 10 13 13 11 9 8 8 9 7 6 7 7 3 2 5 5 3 5 5 5 5 4 5 7 9 13 16 13 8 4 4 5 6 7 6 5 5 5 3 4 7 6 4 4 4 8 11 10 8
10 10 11 11 11 11 11 10 10 10 10 10 8 7 7 8 10 10 10 10 8 10 14 10 4 5 6 7 11 14 13 11 14 18 17 14 14 12 9 9 12 14 11 10 9 8 9 8 7 6 7 6 4 4 4 4 6 6 5 5 4 4 5 7 9 10 14 13 9 7 5 6 8 9 10 7 7 5 4 5 6 8 4 3 15 16 6 6
9 10 10 10 10 10 10 11 11 11 11 11 12 10 9 8 9 10 10 11 10 9 13 13 7 3 5 9 10 12 13 11 11 15 17 16 14 13 9 7 10 13 12 11 10 9 9 8 8 8 8 10 7 4 4 6 6 5 5 4 3 4 5 7 7 6 10 11 10 10 7 10 12 12 12 11 11 8 6 5 5 10 5 8 26 16 -4 4
8 9 9 9 9 9 9 10 10 11 11 11 12 11 12 11 10 9 10 11 10 8 11 15 12 4 4 9 10 11 12 12 12 12 14 17 16 13 10 7 6 10 13 13 11 9 8 8 9 10 8 9 9 5 3 6 7 5 5 4 4 4 4 6 6 4 8 9 8 9 8 11 16 14 12 13 12 8 7 6 4 10 7 11 25 12 -7 -0
9 9 9 8 9 8 8 8 9 9 10 11 12 11 11 12 12 9 10 11 10 9 7 11 15 6 5 8 7 9 11 12 13 11 12 15 16 14 11 10 6 8 14 13 10 10 8 8 9 10 9 8 9 6 3 4 8 8 5 4 4 3 3 5 6 4 6 9 7 7 8 9 11 12 13 11 8 7 10 7 3 5 5 11 22 16 2 0
15 15 13 12 11 10 9 8 7 8 9 10 11 11 11 11 13 12 12 11 8 11 7 7 13 6 5 12 7 6 10 11 12 11 11 13 17 17 11 11 10 7 10 11 11 11 9 10 10 9 10 8 8 8 4 3 8 9 5 4 3 3 4 4 6 5 4 8 8 7 9 10 10 10 9 8 5 7 12 11 4 -0 1 7 11 10 7 7
25 25 23 21 18 15 12 9 8 8 8 9 7 9 13 13 14 12 13 12 8 12 10 6 9 4 7 14 8 5 10 10 10 10 10 11 16 20 13 10 12 9 7 10 13 12 10 12 12 10 10 9 8 8 6 2 5 8 7 5 3 3 5 5 6 6 5 7 7 9 10 10 11 7 4 5 4 6 10 12 8 3 3 3 10 25 25 18
31 32 31 31 29 24 19 15 13 9 7 9 7 9 12 12 16 15 13 13 9 12 14 7 4 2 8 13 8 7 9 10 12 10 9 10 13 20 18 10 8 9 8 9 12 13 11 11 12 11 10 10 9 9 8 5 3 6 7 6 5 5 5 6 8 6 6 7 7 9 10 9 9 6 4 5 4 6 6 9 11 8 9 3 16 43 32 13
28 30 31 34 35 34 30 24 20 16 12 10 8 10 11 10 15 15 12 13 10 10 15 10 2 4 11 13 11 10 9 13 16 12 11 10 9 16 20 15 9 8 9 9 10 11 12 12 12 12 10 11 10 9 9 7 4 5 6 6 8 7 6 7 9 7 5 7 8 7 7 8 7 5 7 6 6 6 4 8 11 8 10 7 18 30 5 -11
27 28 28 29 32 34 35 32 27 22 19 16 13 12 12 12 13 13 14 13 10 10 14 12 5 6 12 13 10 9 9 14 14 12 13 13 10 12 17 17 12 9 7 6 6 7 9 12 13 12 10 10 10 10 9 8 6 5 4 7 10 11 10 10 11 8 4 5 9 7 6 7 6 5 6 6 6 6 4 6 8 9 9 10 20 14 -13 -12
34 34 33 31 29 31 34 36 33 29 28 23 18 16 14 14 13 12 15 14 13 16 15 13 10 8 11 14 13 9 10 14 13 13 15 13 11 11 14 19 16 12 10 8 6 6 6 9 12 13 10 9 10 10 10 9 9 5 3 8 12 13 13 12 12 10 6 7 8 6 6 6 6 7 6 6 5 4 5 5 8 12 8 8 20 16 -5 -7
38 38 40 39 34 32 32 35 36 33 34 29 20 20 19 16 15 12 11 11 13 18 16 14 13 10 11 13 13 12 12 13 11 13 15 13 12 10 12 19 18 13 11 11 10 8 6 6 10 12 11 10 10 10 10 10 10 6 3 8 12 13 12 10 10 9 7 9 6 5 9 6 7 7 4 6 5 3 6 6 8 11 9 10 16 20 11 -13
38 33 35 41 39 35 31 33 35 30 34 34 24 25 23 17 17 13 10 9 10 14 16 15 14 11 11 10 11 14 14 13 10 11 13 13 13 11 11 15 18 15 11 9 8 8 7 6 9 13 13 11 10 11 11 10 10 7 4 9 12 12 12 9 8 9 9 10 5 5 10 8 6 6 3 5 5 5 6 6 8 8 10 16 10 9 7 -16
29 23 22 31 36 38 33 31 31 21 29 38 26 25 24 18 18 15 11 10 9 12 12 14 16 14 13 10 9 12 15 15 12 9 12 12 11 11 9 8 12 13 11 9 7 7 7 7 8 11 13 13 10 10 11 10 10 8 6 10 12 12 11 8 9 7 5 8 6 7 11 8 5 5 6 6 6 7 6 6 8 5 10 21 19 12 3 -6
14 18 19 24 32 35 32 33 27 10 23 40 26 20 21 16 16 16 14 12 10 14 12 11 14 15 14 12 11 14 15 15 14 12 13 12 11 12 10 9 10 9 10 11 9 7 7 7 7 8 12 15 11 8 10 9 8 7 6 7 7 10 9 5 4 2 1 7 10 8 8 7 6 7 8 6 5 7 6 6 6 4 8 15 19 13 1 4
15 15 15 26 35 33 33 34 18 6 26 38 22 17 19 16 17 18 19 15 11 13 12 11 12 14 16 14 14 17 15 12 14 15 14 12 12 13 12 11 11 9 12 14 12 9 7 7 7 6 9 14 13 10 9 9 9 7 7 6 4 4 4 2 2 3 5 9 10 9 8 6 6 7 8 6 5 5 4 6 6 6 6 6 12 11 5 13
31 16 11 27 35 33 36 26 5 9 30 29 16 16 16 15 18 18 17 15 13 13 12 12 12 13 15 14 16 19 16 14 13 15 15 10 8 10 10 10 9 9 11 13 14 12 8 7 7 6 6 10 14 12 8 11 16 13 12 12 9 7 7 7 7 6 8 9 9 9 7 6 6 6 8 7 4 5 5 4 4 10 11 4 7 6 4 16
47 28 17 28 36 34 31 16 3 15 26 20 15 14 13 17 18 17 17 17 17 15 13 14 14 14 14 14 17 19 18 17 15 14 14 11 10 11 10 11 10 8 8 9 12 12 10 10 10 9 6 7 12 13 8 7 11 13 12 9 7 8 11 11 9 8 9 9 9 7 4 5 7 5 7 8 5 6 6 4 6 16 17 7 5 5 2 13
52 47 33 34 39 31 19 7 8 22 22 17 14 8 14 21 14 15 20 17 19 18 14 15 15 16 15 14 18 19 18 19 16 14 14 13 14 12 10 11 11 10 9 8 9 12 12 10 10 11 8 6 10 14 11 6 6 9 10 8 9 11 11 10 10 9 8 7 7 7 3 4 7 6 7 8 7 7 7 5 5 12 19 16 11 6 2 5
33 51 53 53 40 15 6 6 17 30 23 15 11 5 15 20 11 17 21 14 19 20 14 13 15 18 19 15 17 20 18 18 16 14 14 13 12 10 10 10 10 11 11 10 10 11 11 10 10 10 10 9 10 14 15 9 7 9 10 11 12 12 9 7 9 8 5 5 7 8 5 2 5 8 9 9 6 7 8 5 5 7 15 24 17 5 4 4
9 26 36 40 22 0 -0 10 28 36 21 13 8 3 16 20 12 19 16 5 17 23 12 10 14 18 21 16 16 19 18 17 17 14 13 12 11 11 11 10 10 11 11 10 10 10 11 11 10 9 10 13 11 12 17 13 8 11 13 12 9 9 8 6 7 7 5 4 6 9 7 3 5 6 8 10 5 5 6 3 8 7 5 20 26 14 7 3
3 6 11 13 9 4 2 15 37 35 14 9 4 4 21 20 11 19 6 -6 16 25 12 9 15 17 19 16 16 17 16 15 16 14 11 12 11 10 11 11 11 11 11 10 10 11 11 10 10 8 9 15 13 10 15 16 10 7 10 11 7 7 10 8 6 7 7 6 5 8 8 5 5 3 5 10 6 7 7 -0 6 10 4 16 36 36 16 -7
9 3 5 7 10 11 12 28 43 27 9 4 1 12 25 13 9 14 -2 -4 20 23 9 8 15 17 18 16 15 16 15 14 15 14 11 12 11 10 11 11 11 12 11 10 9 10 11 9 9 8 8 14 14 9 11 15 13 6 5 9 7 5 8 9 8 7 7 7 6 7 7 7 6 2 4 9 7 7 7 2 5 9 6 8 19 37 33 -2
25 20 11 5 7 15 27 41 37 20 8 0 4 21 21 8 8 5 -5 8 24 15 5 9 13 16 19 18 15 15 14 13 14 13 11 11 10 10 12 10 11 13 12 10 9 9 11 10 8 8 10 12 11 11 12 14 15 12 9 11 12 7 6 7 8 8 6 7 6 5 5 7 8 5 4 6 4 2 3 7 13 9 6 6 3 18 35 16
23 34 31 21 19 28 42 43 31 17 1 -3 16 28 14 0 -0 -0 5 18 18 7 4 9 11 15 22 21 16 15 14 12 13 12 10 10 10 10 11 11 11 12 12 13 13 11 10 11 9 10 12 10 9 13 14 13 16 16 11 11 13 10 6 6 7 8 6 5 5 4 5 7 8 10 8 4 3 4 5 11 15 6 1 7 4 4 17 22
19 36 39 33 30 39 45 37 25 11 -5 6 29 27 9 -4 -8 7 20 15 11 8 1 2 6 9 19 25 20 16 14 13 13 13 11 10 9 9 10 11 11 11 11 11 12 12 10 10 10 10 10 9 10 14 16 14 15 15 9 7 11 11 7 5 5 7 8 7 5 3 4 5 6 8 10 6 6 9 10 9 7 3 3 5 3 1 3 8
34 42 36 30 32 38 36 29 22 5 -4 19 34 18 1 -12 -5 25 30 9 9 11 3 5 7 4 13 22 22 17 15 15 14 14 14 11 8 8 9 10 11 11 11 10 11 12 12 11 11 9 8 8 8 10 13 14 13 13 11 7 8 12 10 6 4 6 9 8 6 4 4 4 4 5 6 5 5 7 9 9 4 2 4 2 -0 0 1 -0
28 33 27 26 33 34 29 24 15 -1 8 35 32 5 -13 -15 10 36 24 2 5 12 12 11 6 6 11 17 24 23 16 15 14 14 15 14 12 10 9 10 11 10 9 10 12 13 13 13 12 12 11 9 6 6 8 11 11 12 13 9 6 9 11 8 4 5 8 8 7 7 6 5 4 4 4 3 4 5 4 5 6 5 4 2 1 -1 -2 -0
12 18 19 21 26 28 27 18 2 5 34 41 9 -19 -19 3 29 28 11 5 4 9 18 9 -1 8 11 11 21 25 20 16 12 14 17 14 13 12 9 11 12 10 8 8 13 14 13 14 13 13 16 14 12 14 14 15 14 13 13 9 6 7 10 10 6 4 6 7 7 6 5 4 3 2 4 5 5 6 4 2 4 7 5 2 1 -0 -2 1
10 11 14 18 20 24 25 15 11 32 46 18 -17 -21 -3 22 28 10 8 18 6 5 18 5 -4 8 11 8 9 14 25 25 13 16 19 14 14 12 9 12 13 13 10 8 13 13 10 13 14 13 17 16 13 13 14 14 14 14 15 12 7 6 8 9 7 5 4 5 7 6 5 4 3 1 3 5 6 7 6 4 5 7 8 7 5 4 -0 -1
18 15 15 14 15 23 27 25 36 46 25 -14 -25 -7 9 20 13 -2 7 19 9 11 16 2 -2 7 9 9 4 5 24 28 18 21 22 16 15 13 10 12 13 15 14 11 12 13 11 14 16 15 17 16 13 11 12 13 12 12 14 14 9 6 7 9 7 5 5 4 4 6 6 6 6 4 1 2 5 7 7 8 7 6 8 9 7 6 3 -1
17 19 19 17 20 25 25 33 42 24 -13 -30 -14 8 17 15 4 -1 8 11 8 14 11 1 5 10 8 9 5 3 17 26 24 23 22 15 11 12 13 12 12 14 15 14 13 12 14 15 15 14 14 14 13 11 10 10 11 11 11 13 13 8 6 8 8 6 5 5 4 5 7 7 8 7 4 2 1 1 4 6 6 4 3 4 6 7 8 8
11 13 15 21 30 32 30 34 25 -11 -35 -21 5 20 23 12 -3 3 16 10 7 13 5 -0 8 11 9 7 2 -0 13 30 29 19 17 13 6 9 14 11 14 15 12 15 17 13 13 14 14 13 12 13 12 10 13 12 9 10 12 12 14 11 7 7 8 8 7 6 5 4 4 6 8 9 9 8 5 3 1 1 2 1 -0 4 11 13 13 13
17 15 14 21 32 38 34 22 -4 -26 -22 3 16 13 20 18 -6 -9 9 12 13 17 6 1 6 8 8 6 0 -2 8 29 31 13 9 12 5 8 12 9 15 19 13 14 17 15 13 12 13 10 8 15 11 3 13 19 10 8 12 12 14 13 10 8 6 8 9 7 6 6 4 5 8 10 12 11 10 10 8 5 3 2 2 6 9 11 12 13
16 15 18 24 27 23 15 -1 -13 -7 6 19 15 -0 16 36 10 -12 1 12 18 22 13 5 6 7 10 6 0 2 8 21 29 14 6 11 6 5 7 5 11 19 19 16 15 15 13 10 12 8 3 12 12 0 6 16 11 10 13 13 14 14 12 11 7 7 9 8 6 6 5 4 4 6 11 15 17 17 15 15 14 11 11 14 12 8 6 4
Height
5709 5708 5708 5707 5707 5707 5707 5707 5707 5707 5707 5707 5707 5708 5708 5709 5710 5711 5712 5714 5715 5717 5719 5720 5722 5724 5726 5728 5730 5732 5735 5738 5740 5744 5748 5750 5750 5752 5754 5756 5759 5762 5764 5765 5767 5768 5770 5771 5773 5775 5777 5778 5780 5783 5785 5787 5789 5791 5793 5796 5801 5805 5807 5809 5810 5810 5809 5810 5812 5812 5813 5816 5818 5820 5821 5823 5824 5825 5827 5829 5830 5831 5834 5835 5836 5837 5839 5840
5703 5703 5702 5702 5702 5702 5701 5702 5702 5702 5702 5702 5702 5702 5703 5704 5704 5705 5707 5708 5710 5712 5713 5715 5717 5719 5721 5722 5725 5727 5730 5732 5735 5740 5742 5744 5746 5747 5750 5752 5756 5759 5760 5762 5764 5765 5767 5768 5771 5772 5774 5775 5777 5779 5781 5783 5786 5788 5791 5794 5799 5802 5804 5805 5806 5807 5807 5807 5809 5809 5811 5813 5815 5817 5819 5821 5822 5823 5825 5827 5829 5830 5832 5832 5833 5835 5837 5838
5697 5697 5697 5697 5697 5696 5696 5696 5696 5697 5697 5697 5697 5697 5698 5698 5699 5700 5701 5703 5704 5706 5708 5710 5712 5714 5715 5717 5719 5722 5725 5727 5731 5734 5736 5740 5741 5742 5746 5749 5753 5756 5757 5759 5761 5762 5764 5766 5768 5770 5771 5772 5774 5775 5777 5780 5782 5785 5788 5792 5797 5798 5799 5801 5802 5804 5804 5804 5806 5807 5809 5810 5812 5815 5817 5818 5820 5821 5823 5824 5827 5829 5829 5830 5831 5833 5835 5835
5692 5692 5691 5691 5691 5691 5691 5691 5691 5691 5691 5692 5692 5692 5693 5693 5694 5695 5696 5697 5699 5700 5702 5704 5707 5708 5710 5712 5714 5717 5719 5722 5726 5729 5731 5735 5736 5738 5743 5745 5748 5751 5753 5755 5757 5759 5761 5763 5765 5767 5768 5769 5771 5772 5774 5776 5779 5782 5785 5791 5794 5794 5796 5797 5799 5801 5801 5801 5802 5804 5806 5807 5809 5812 5815 5816 5818 5819 5821 5822 5824 5827 5828 5828 5829 5831 5832 5833
5686 5686 5685 5685 5685 5685 5685 5685 5685 5686 5686 5686 5686 5687 5688 5688 5689 5690 5691 5692 5693 5695 5697 5699 5701 5703 5705 5707 5709 5712 5714 5717 5721 5724 5726 5729 5730 5734 5738 5740 5744 5746 5748 5750 5753 5756 5758 5760 5762 5764 5765 5767 5768 5770 5771 5774 5776 5778 5783 5788 5789 5791 5793 5794 5796 5798 5798 5798 5800 5801 5803 5804 5807 5810 5812 5814 5816 5818 5819 5820 5822 5825 5826 5827 5828 5828 5830 5831
5680 5680 5679 5679 5679 5679 5679 5679 5680 5680 5680 5681 5681 5682 5682 5683 5684 5684 5686 5687 5688 5690 5691 5693 5695 5697 5699 5701 5704 5707 5709 5712 5715 5718 5721 5723 5726 5729 5733 5736 5739 5741 5743 5746 5749 5753 5755 5757 5759 5761 5763 5764 5766 5767 5769 5770 5772 5774 5779 5784 5786 5788 5790 5792 5794 5794 5795 5796 5797 5799 5800 5802 5804 5807 5810 5812 5814 5816 5817 5819 5820 5823 5824 5825 5826 5826 5827 5829
5675 5674 5674 5673 5673 5673 5673 5673 5674 5674 5675 5675 5676 5676 5677 5678 5678 5679 5680 5681 5683 5684 5686 5688 5689 5692 5694 5696 5699 5701 5705 5708 5709 5713 5716 5718 5721 5724 5727 5731 5734 5736 5739 5742 5746 5749 5751 5754 5756 5758 5760 5761 5763 5765 5766 5767 5768 5771 5776 5780 5783 5785 5787 5788 5790 5791 5793 5794 5794 5796 5798 5800 5802 5804 5807 5809 5812 5814 5815 5817 5819 5821 5822 5823 5824 5825 5826 5827
5669 5668 5668 5667 5667 5666 5667 5667 5668 5668 5669 5670 5670 5671 5672 5672 5673 5674 5675 5676 5677 5679 5681 5682 5684 5686 5688 5690 5693 5697 5701 5703 5703 5707 5710 5713 5716 5719 5722 5726 5729 5732 5734 5737 5741 5744 5747 5750 5753 5755 5757 5758 5760 5762 5762 5763 5765 5768 5772 5777 5780 5782 5784 5785 5787 5789 5790 5791 5791 5793 5795 5797 5800 5802 5805 5807 5809 5811 5813 5815 5817 5818 5820 5822 5823 5823 5824 5825
5663 5663 5662 5661 5661 5660 5660 5661 5661 5662 5663 5664 5664 5665 5666 5667 5668 5669 5670 5671 5672 5674 5675 5677 5679 5680 5682 5685 5688 5692 5697 5697 5697 5701 5704 5707 5711 5714 5717 5720 5724 5727 5730 5733 5736 5739 5743 5746 5749 5751 5753 5755 5757 5758 5759 5760 5763 5766 5769 5772 5775 5778 5780 5781 5783 5785 5787 5788 5788 5790 5792 5794 5797 5800 5802 5805 5807 5809 5811 5813 5815 5816 5818 5820 5820 5821 5822 5824
5657 5656 5655 5655 5655 5654 5654 5654 5655 5656 5656 5657 5658 5659 5660 5661 5662 5663 5664 5665 5667 5668 5670 5672 5673 5675 5677 5679 5683 5688 5691 5690 5692 5695 5699 5702 5706 5709 5712 5715 5719 5722 5725 5729 5733 5736 5739 5743 5745 5747 5750 5751 5753 5755 5756 5758 5761 5764 5766 5768 5771 5774 5776 5777 5780 5782 5784 5786 5787 5788 5790 5791 5795 5798 5800 5802 5805 5807 5809 5812 5814 5815 5816 5817 5818 5819 5820 5822
5652 5650 5649 5649 5648 5648 5648 5648 5648 5649 5650 5651 5652 5653 5654 5655 5656 5657 5659 5660 5661 5663 5664 5666 5667 5670 5672 5674 5679 5683 5683 5684 5686 5689 5693 5697 5700 5704 5707 5710 5714 5718 5721 5725 5729 5732 5735 5738 5741 5743 5746 5748 5750 5752 5754 5756 5759 5761 5763 5765 5768 5771 5773 5774 5777 5780 5782 5784 5785 5786 5787 5789 5792 5795 5797 5800 5802 5805 5807 5810 5812 5813 5814 5815 5816 5817 5818 5820
5646 5645 5643 5643 5642 5642 5641 5641 5642 5642 5643 5644 5645 5646 5647 5649 5650 5651 5653 5654 5656 5657 5659 5661 5662 5665 5666 5670 5675 5674 5675 5678 5680 5683 5687 5691 5695 5699 5702 5706 5710 5713 5717 5721 5724 5727 5731 5734 5737 5740 5742 5745 5748 5749 5751 5754 5757 5759 5761 5763 5765 5768 5769 5771 5775 5777 5780 5782 5783 5784 5785 5787 5791 5794 5795 5798 5800 5803 5805 5807 5809 5811 5812 5813 5814 5815 5817 5818
5640 5639 5638 5637 5636 5635 5634 5634 5635 5635 5636 5637 5638 5640 5641 5642 5644 5645 5647 5649 5650 5652 5654 5655 5658 5660 5661 5667 5668 5665 5669 5673 5675 5678 5682 5686 5690 5694 5697 5701 5705 5709 5713 5716 5719 5723 5726 5730 5734 5736 5739 5742 5744 5746 5748 5752 5755 5757 5759 5761 5763 5764 5766 5769 5772 5775 5778 5779 5780 5782 5784 5786 5790 5792 5794 5796 5799 5801 5803 5805 5808 5809 5810 5811 5812 5814 5815 5816
5633 5632 5631 5630 5630 5629 5628 5628 5628 5628 5629 5630 5632 5633 5634 5636 5637 5639 5641 5643 5644 5646 5648 5650 5653 5654 5658 5663 5661 5660 5665 5668 5671 5673 5676 5682 5686 5689 5693 5696 5700 5704 5708 5711 5714 5718 5722 5726 5729 5733 5736 5739 5741 5743 5746 5749 5752 5755 5757 5759 5760 5762 5764 5767 5769 5772 5775 5777 5778 5781 5783 5785 5788 5790 5792 5795 5797 5799 5801 5803 5805 5807 5808 5809 5810 5812 5813 5814
5626 5625 5624 5623 5623 5622 5622 5622 5621 5622 5622 5623 5625 5626 5627 5629 5630 5632 5635 5637 5638 5640 5642 5644 5647 5649 5653 5657 5654 5655 5659 5663 5665 5666 5670 5677 5681 5684 5688 5691 5695 5699 5703 5706 5710 5714 5717 5721 5724 5728 5732 5735 5738 5740 5742 5746 5749 5752 5754 5756 5758 5760 5762 5764 5766 5769 5772 5774 5775 5778 5781 5783 5786 5788 5791 5793 5795 5797 5798 5801 5803 5804 5806 5807 5808 5809 5811 5812
5618 5617 5616 5615 5615 5615 5615 5615 5615 5615 5615 5616 5618 5619 5620 5622 5624 5626 5629 5631 5632 5634 5637 5639 5642 5644 5648 5651 5650 5651 5654 5657 5659 5661 5666 5672 5675 5679 5682 5686 5689 5693 5697 5701 5705 5708 5712 5716 5720 5723 5727 5731 5734 5737 5739 5743 5746 5749 5751 5754 5756 5758 5760 5761 5763 5766 5769 5771 5773 5776 5779 5781 5784 5787 5789 5790 5791 5793 5796 5798 5800 5802 5804 5805 5806 5807 5809 5810
5610 5609 5608 5607 5607 5607 5607 5607 5607 5607 5608 5609 5610 5611 5613 5615 5617 5620 5622 5624 5626 5628 5631 5634 5637 5639 5643 5645 5645 5646 5648 5652 5655 5658 5662 5666 5669 5673 5677 5680 5683 5687 5692 5695 5699 5703 5707 5711 5715 5719 5722 5726 5730 5733 5735 5739 5743 5746 5749 5752 5753 5756 5758 5759 5762 5764 5766 5768 5770 5773 5777 5779 5782 5785 5787 5787 5789 5791 5793 5795 5798 5800 5801 5803 5804 5805 5806 5807
5602 5600 5599 5599 5598 5598 5598 5598 5599 5599 5600 5602 5603 5604 5605 5608 5611 5613 5615 5618 5620 5623 5626 5629 5632 5634 5637 5639 5640 5641 5644 5647 5650 5654 5657 5660 5665 5668 5672 5675 5678 5682 5686 5690 5694 5698 5702 5706 5710 5714 5718 5722 5725 5728 5731 5737 5742 5745 5747 5750 5752 5755 5756 5758 5760 5762 5764 5766 5768 5770 5774 5777 5779 5782 5784 5785 5787 5789 5791 5793 5795 5796 5798 5800 5801 5802 5803 5805
5593 5591 5590 5590 5589 5589 5589 5589 5590 5590 5591 5593 5595 5595 5598 5601 5604 5606 5609 5611 5615 5617 5620 5623 5626 5629 5631 5633 5635 5637 5640 5642 5646 5649 5652 5655 5659 5663 5667 5671 5674 5678 5681 5685 5689 5693 5697 5701 5704 5709 5713 5718 5722 5725 5730 5736 5740 5742 5745 5748 5751 5753 5755 5756 5758 5760 5761 5763 5765 5767 5771 5774 5777 5780 5782 5783 5785 5787 5788 5790 5792 5794 5795 5797 5799 5800 5801 5803
5583 5581 5581 5580 5579 5579 5579 5579 5581 5581 5582 5585 5586 5587 5590 5593 5596 5599 5602 5606 5609 5612 5614 5618 5621 5623 5626 5628 5630 5633 5635 5637 5641 5644 5646 5650 5654 5658 5662 5666 5670 5674 5678 5682 5685 5689 5693 5696 5700 5706 5711 5716 5720 5723 5727 5733 5736 5739 5742 5746 5748 5751 5753 5754 5756 5757 5759 5761 5763 5765 5768 5771 5774 5777 5779 5781 5781 5783 5785 5787 5790 5792 5794 5796 5798 5800 5801 5802
5572 5571 5570 5569 5569 5569 5569 5570 5571 5571 5574 5576 5577 5578 5582 5586 5588 5592 5596 5600 5603 5606 5609 5612 5615 5618 5620 5622 5624 5628 5631 5634 5637 5639 5642 5646 5649 5652 5657 5661 5665 5669 5674 5678 5681 5685 5689 5692 5698 5703 5708 5713 5717 5720 5724 5729 5732 5735 5739 5742 5745 5748 5750 5752 5753 5755 5757 5759 5761 5763 5766 5769 5772 5774 5776 5777 5778 5780 5782 5785 5788 5790 5791 5794 5795 5796 5798 5799
5560 5559 5558 5557 5558 5558 5558 5559 5560 5562 5564 5567 5568 5570 5574 5578 5581 5585 5590 5594 5598 5599 5602 5605 5608 5613 5614 5614 5618 5622 5627 5630 5632 5634 5637 5641 5645 5648 5652 5657 5662 5666 5670 5673 5677 5681 5684 5688 5694 5699 5704 5709 5713 5717 5720 5724 5729 5732 5735 5739 5742 5745 5748 5750 5752 5753 5755 5757 5759 5761 5764 5767 5769 5770 5772 5773 5775 5777 5780 5783 5785 5786 5788 5790 5792 5793 5795 5795
5547 5545 5544 5544 5544 5545 5546 5547 5549 5551 5555 5557 5558 5561 5567 5571 5574 5579 5583 5588 5591 5592 5596 5599 5602 5607 5607 5608 5613 5618 5622 5626 5627 5630 5633 5637 5641 5644 5648 5653 5658 5662 5666 5670 5674 5678 5681 5685 5690 5695 5700 5705 5709 5713 5716 5720 5724 5728 5731 5735 5739 5742 5745 5748 5749 5751 5753 5755 5757 5759 5762 5764 5765 5766 5767 5769 5771 5773 5777 5779 5780 5781 5783 5786 5787 5789 5790 5792
5531 5530 5529 5529 5529 5531 5532 5534 5537 5540 5544 5546 5548 5554 5560 5563 5568 5573 5576 5580 5584 5586 5589 5593 5597 5601 5601 5601 5608 5613 5617 5621 5623 5625 5629 5633 5637 5640 5644 5649 5653 5658 5663 5668 5672 5675 5678 5682 5688 5693 5697 5701 5705 5709 5713 5716 5721 5724 5728 5732 5736 5739 5743 5745 5748 5749 5750 5752 5754 5757 5759 5761 5762 5763 5764 5766 5768 5770 5773 5775 5776 5779 5782 5784 5786 5788 5789 5789
5516 5514 5513 5513 5514 5516 5517 5520 5525 5528 5532 5535 5539 5547 5552 5556 5561 5566 5568 5572 5578 5580 5582 5587 5591 5593 5594 5598 5605 5610 5613 5617 5619 5621 5624 5628 5633 5636 5640 5643 5648 5654 5659 5664 5668 5671 5674 5679 5685 5690 5694 5698 5702 5705 5709 5713 5717 5720 5724 5728 5733 5736 5740 5743 5745 5746 5747 5749 5752 5754 5756 5757 5759 5761 5762 5764 5765 5767 5770 5772 5774 5777 5781 5784 5786 5790 5793 5791
5501 5500 5499 5499 5500 5501 5503 5508 5512 5516 5520 5524 5532 5540 5543 5549 5555 5558 5561 5566 5571 5574 5576 5580 5584 5586 5589 5596 5601 5605 5609 5613 5615 5617 5620 5624 5628 5632 5635 5639 5644 5650 5655 5660 5663 5667 5670 5674 5680 5686 5690 5695 5698 5702 5706 5710 5714 5717 5721 5725 5730 5733 5737 5740 5742 5743 5743 5746 5749 5751 5752 5754 5756 5758 5760 5761 5763 5765 5768 5770 5772 5776 5779 5782 5784 5786 5790 5790
5489 5487 5486 5486 5487 5487 5490 5495 5499 5505 5510 5516 5525 5531 5535 5542 5547 5550 5555 5559 5564 5568 5570 5574 5577 5581 5586 5591 5595 5599 5604 5608 5610 5613 5617 5620 5624 5628 5631 5635 5640 5645 5650 5654 5658 5662 5666 5670 5676 5682 5686 5690 5694 5698 5703 5707 5710 5714 5718 5722 5726 5730 5734 5737 5739 5739 5740 5743 5746 5749 5750 5751 5753 5755 5757 5758 5760 5763 5765 5767 5770 5774 5777 5780 5782 5781 5783 5786
5477 5475 5474 5474 5475 5476 5480 5484 5489 5496 5501 5508 5517 5522 5527 5535 5539 5543 5548 5552 5557 5561 5564 5568 5572 5577 5582 5586 5590 5595 5599 5603 5605 5608 5612 5616 5620 5624 5628 5632 5637 5642 5647 5650 5654 5659 5663 5666 5672 5678 5683 5686 5690 5695 5700 5704 5707 5711 5716 5720 5723 5727 5731 5733 5735 5736 5737 5740 5744 5746 5747 5748 5749 5752 5754 5755 5758 5760 5762 5765 5768 5772 5775 5777 5778 5779 5782 5785
5466 5464 5463 5464 5465 5468 5472 5476 5482 5489 5493 5499 5507 5514 5521 5528 5531 5537 5542 5546 5551 5555 5559 5563 5567 5572 5577 5581 5585 5589 5594 5597 5599 5603 5608 5612 5617 5621 5626 5630 5634 5639 5643 5647 5652 5656 5661 5665 5670 5675 5680 5684 5688 5692 5696 5700 5704 5708 5713 5716 5719 5723 5727 5729 5730 5732 5734 5737 5741 5744 5744 5744 5746 5749 5752 5753 5755 5758 5761 5764 5767 5769 5772 5774 5776 5779 5782 5784
5458 5457 5456 5457 5458 5461 5465 5470 5476 5482 5485 5491 5500 5507 5514 5520 5525 5531 5537 5541 5546 5550 5554 5558 5562 5567 5572 5576 5580 5584 5588 5592 5594 5598 5603 5608 5613 5618 5622 5626 5631 5635 5639 5643 5648 5652 5658 5663 5666 5672 5677 5681 5685 5689 5693 5697 5700 5705 5710 5713 5716 5719 5723 5725 5727 5730 5731 5734 5739 5742 5741 5741 5743 5746 5749 5751 5754 5757 5760 5763 5765 5766 5768 5772 5775 5778 5780 5782
5453 5452 5452 5452 5453 5456 5460 5465 5470 5476 5480 5486 5495 5501 5508 5515 5520 5526 5532 5538 5542 5546 5550 5554 5558 5563 5567 5571 5575 5579 5583 5587 5590 5594 5599 5604 5608 5613 5617 5621 5626 5630 5635 5639 5643 5648 5653 5658 5662 5667 5673 5677 5681 5685 5689 5693 5696 5701 5706 5709 5712 5716 5719 5721 5723 5726 5728 5732 5737 5738 5737 5738 5739 5743 5747 5749 5753 5756 5758 5761 5763 5764 5767 5771 5774 5776 5778 5781
5451 5450 5449 5450 5451 5453 5456 5460 5466 5472 5476 5482 5490 5496 5503 5509 5515 5522 5529 5534 5538 5541 5545 5549 5554 5559 5563 5567 5571 5575 5579 5583 5587 5591 5596 5600 5604 5609 5613 5618 5622 5625 5629 5633 5638 5643 5649 5654 5658 5663 5668 5672 5676 5681 5685 5688 5691 5697 5702 5705 5708 5712 5715 5717 5719 5722 5724 5728 5733 5734 5735 5735 5736 5741 5745 5747 5750 5753 5755 5758 5761 5762 5765 5769 5771 5773 5776 5778
5449 5448 5448 5448 5448 5450 5453 5458 5464 5470 5474 5480 5486 5493 5499 5504 5511 5519 5525 5530 5534 5538 5542 5546 5551 5555 5559 5563 5567 5571 5575 5579 5583 5587 5592 5597 5601 5607 5611 5616 5620 5623 5627 5630 5634 5638 5643 5649 5654 5658 5663 5668 5672 5676 5680 5684 5688 5693 5698 5701 5704 5706 5709 5711 5714 5718 5720 5724 5729 5731 5732 5732 5733 5738 5742 5744 5747 5750 5753 5754 5756 5757 5760 5764 5767 5769 5772 5774
5446 5446 5446 5446 5446 5448 5452 5457 5462 5468 5472 5477 5484 5490 5495 5502 5510 5517 5521 5527 5531 5535 5539 5544 5548 5552 5555 5559 5564 5568 5572 5576 5579 5584 5589 5593 5597 5603 5608 5612 5617 5621 5625 5629 5633 5637 5641 5645 5649 5653 5658 5664 5668 5673 5678 5684 5688 5692 5696 5699 5701 5704 5707 5709 5712 5714 5715 5720 5726 5729 5728 5728 5729 5734 5739 5742 5745 5748 5750 5750 5751 5753 5754 5757 5761 5764 5767 5770
5445 5445 5445 5445 5446 5448 5452 5457 5462 5466 5471 5476 5482 5488 5493 5501 5509 5514 5519 5525 5529 5532 5537 5541 5545 5549 5552 5556 5561 5565 5569 5573 5577 5581 5586 5590 5595 5600 5605 5609 5613 5617 5621 5626 5631 5636 5640 5644 5648 5651 5656 5660 5665 5670 5675 5680 5684 5689 5693 5696 5698 5702 5706 5709 5712 5713 5715 5719 5723 5725 5725 5724 5728 5733 5737 5741 5743 5746 5747 5748 5751 5753 5753 5753 5755 5758 5763 5766
5447 5445 5445 5446 5448 5451 5455 5459 5463 5467 5471 5476 5482 5486 5493 5501 5507 5512 5518 5523 5526 5530 5535 5539 5543 5546 5549 5554 5558 5562 5566 5570 5575 5579 5583 5588 5593 5598 5602 5606 5611 5615 5619 5623 5627 5632 5636 5641 5646 5650 5654 5659 5663 5667 5672 5676 5679 5683 5688 5692 5696 5700 5703 5707 5710 5711 5713 5716 5720 5723 5722 5723 5727 5731 5735 5738 5740 5743 5744 5745 5749 5752 5753 5755 5755 5756 5758 5763
5453 5450 5448 5449 5451 5455 5458 5461 5464 5467 5471 5477 5482 5488 5494 5500 5505 5510 5517 5522 5526 5529 5533 5537 5541 5544 5548 5552 5555 5559 5564 5568 5572 5576 5581 5586 5590 5595 5600 5604 5609 5613 5617 5621 5624 5629 5634 5638 5643 5647 5651 5657 5661 5665 5670 5674 5677 5681 5685 5689 5693 5696 5700 5704 5706 5708 5710 5713 5717 5720 5720 5722 5725 5728 5732 5735 5738 5741 5742 5745 5749 5751 5753 5756 5758 5758 5756 5758
5460 5457 5455 5455 5457 5459 5462 5464 5466 5468 5472 5478 5484 5489 5494 5499 5504 5510 5516 5522 5525 5527 5532 5536 5539 5542 5546 5549 5553 5557 5561 5566 5570 5574 5578 5583 5588 5593 5597 5601 5606 5610 5615 5619 5623 5627 5631 5636 5641 5645 5648 5653 5658 5661 5666 5670 5675 5679 5683 5685 5689 5693 5696 5699 5701 5704 5707 5709 5714 5717 5718 5720 5723 5726 5730 5734 5737 5740 5742 5745 5748 5751 5752 5754 5757 5759 5759 5760
5464 5463 5462 5462 5463 5463 5464 5466 5467 5469 5474 5480 5485 5490 5494 5499 5505 5510 5516 5522 5525 5527 5532 5535 5538 5541 5544 5548 5552 5556 5559 5564 5568 5572 5576 5581 5586 5591 5595 5599 5604 5608 5612 5616 5620 5624 5628 5632 5637 5642 5646 5650 5653 5657 5661 5666 5670 5674 5677 5681 5687 5691 5694 5697 5699 5701 5704 5707 5711 5715 5716 5718 5721 5725 5729 5733 5735 5738 5741 5744 5747 5749 5750 5751 5752 5755 5759 5762
5467 5466 5465 5465 5465 5465 5466 5467 5469 5472 5476 5481 5486 5490 5494 5500 5505 5510 5516 5521 5524 5527 5532 5534 5537 5540 5543 5547 5551 5554 5558 5562 5566 5570 5574 5579 5584 5588 5593 5597 5601 5606 5610 5613 5617 5621 5626 5630 5634 5639 5642 5646 5650 5655 5660 5664 5667 5670 5673 5677 5683 5687 5691 5695 5698 5701 5703 5706 5709 5713 5714 5717 5720 5723 5727 5731 5734 5736 5739 5742 5745 5747 5748 5749 5750 5752 5756 5758
5469 5468 5467 5466 5466 5466 5467 5468 5471 5475 5479 5483 5488 5492 5496 5501 5506 5512 5517 5521 5524 5528 5531 5534 5538 5541 5543 5546 5549 5553 5557 5561 5564 5568 5572 5577 5582 5586 5590 5595 5599 5603 5607 5610 5614 5618 5623 5628 5632 5635 5639 5643 5649 5654 5659 5663 5667 5671 5674 5677 5680 5683 5687 5691 5694 5698 5702 5704 5707 5710 5712 5716 5719 5722 5725 5729 5732 5734 5737 5740 5742 5744 5746 5747 5749 5751 5754 5755
5471 5468 5467 5466 5466 5467 5468 5470 5473 5477 5481 5486 5490 5494 5498 5503 5509 5514 5518 5521 5524 5528 5532 5535 5538 5541 5544 5546 5549 5552 5556 5560 5564 5568 5571 5576 5581 5585 5589 5593 5598 5601 5605 5609 5613 5616 5621 5625 5630 5633 5637 5643 5648 5652 5657 5661 5666 5670 5673 5676 5680 5682 5685 5689 5692 5695 5698 5701 5704 5707 5710 5713 5717 5720 5723 5727 5729 5731 5734 5737 5740 5742 5743 5745 5747 5749 5751 5753
5473 5470 5468 5467 5467 5468 5470 5473 5477 5480 5485 5489 5492 5496 5501 5507 5512 5516 5519 5522 5525 5529 5532 5536 5539 5542 5544 5546 5548 5552 5556 5560 5564 5567 5571 5576 5580 5584 5587 5591 5596 5599 5603 5608 5611 5615 5619 5623 5627 5631 5635 5640 5645 5650 5655 5658 5661 5665 5669 5673 5677 5681 5685 5688 5691 5694 5697 5699 5702 5705 5708 5712 5716 5719 5721 5724 5727 5729 5731 5734 5737 5740 5741 5742 5744 5746 5748 5750
5477 5473 5471 5470 5470 5472 5474 5477 5480 5484 5488 5491 5495 5500 5505 5511 5515 5517 5520 5524 5528 5531 5533 5536 5539 5542 5545 5546 5548 5552 5556 5560 5564 5567 5571 5575 5579 5583 5586 5589 5593 5597 5601 5606 5610 5613 5617 5621 5625 5628 5632 5636 5640 5644 5649 5652 5656 5662 5666 5671 5675 5679 5683 5686 5689 5692 5695 5698 5701 5703 5706 5710 5714 5717 5719 5722 5724 5726 5729 5732 5735 5737 5739 5740 5742 5744 5746 5748
5482 5478 5477 5476 5477 5478 5480 5482 5485 5488 5491 5495 5499 5503 5508 5513 5516 5518 5522 5526 5530 5532 5534 5536 5540 5543 5546 5547 5549 5552 5556 5559 5563 5567 5571 5575 5579 5581 5584 5587 5591 5595 5600 5605 5609 5612 5616 5620 5623 5626 5629 5633 5636 5640 5645 5649 5654 5659 5664 5669 5673 5676 5679 5683 5686 5689 5692 5696 5698 5701 5704 5708 5712 5714 5717 5720 5722 5724 5727 5729 5732 5734 5737 5738 5740 5742 5744 5746
5487 5485 5484 5483 5484 5485 5486 5488 5490 5492 5495 5498 5502 5507 5511 5515 5517 5520 5524 5528 5531 5533 5534 5537 5540 5543 5546 5548 5550 5552 5555 5559 5563 5567 5571 5575 5577 5579 5582 5586 5590 5594 5598 5602 5606 5609 5613 5618 5622 5626 5630 5634 5638 5643 5647 5650 5653 5657 5662 5666 5670 5674 5677 5681 5684 5688 5692 5694 5696 5699 5702 5706 5709 5712 5715 5717 5720 5723 5725 5727 5729 5732 5734 5736 5738 5740 5742 5744
5493 5492 5491 5490 5490 5491 5492 5493 5495 5497 5500 5503 5506 5511 5514 5517 5519 5523 5527 5530 5531 5533 5535 5538 5541 5545 5547 5549 5551 5554 5556 5559 5563 5567 5571 5574 5576 5578 5581 5585 5589 5593 5596 5600 5604 5607 5611 5616 5621 5625 5629 5633 5638 5642 5645 5648 5652 5656 5660 5664 5668 5671 5674 5678 5682 5686 5690 5692 5694 5697 5700 5703 5707 5710 5712 5715 5718 5721 5723 5725 5727 5729 5732 5734 5736 5738 5740 5741
5499 5498 5497 5496 5496 5497 5498 5498 5500 5502 5505 5508 5512 5515 5517 5519 5522 5525 5527 5530 5532 5534 5537 5540 5543 5546 5549 5551 5553 5555 5557 5560 5563 5567 5571 5573 5575 5578 5581 5585 5588 5592 5595 5599 5602 5606 5610 5615 5620 5623 5627 5631 5635 5639 5642 5647 5650 5654 5658 5662 5665 5669 5672 5676 5680 5684 5687 5690 5693 5696 5699 5701 5704 5708 5710 5713 5716 5718 5720 5722 5724 5726 5728 5731 5733 5736 5738 5739
5504 5503 5502 5502 5502 5503 5504 5505 5507 5509 5511 5514 5516 5518 5520 5522 5524 5527 5528 5530 5533 5536 5539 5542 5545 5548 5551 5553 5555 5556 5558 5560 5563 5567 5570 5572 5575 5578 5582 5585 5588 5591 5595 5598 5601 5605 5610 5614 5618 5622 5625 5629 5632 5637 5641 5645 5648 5652 5656 5660 5664 5667 5671 5675 5678 5681 5685 5688 5691 5694 5696 5699 5702 5705 5707 5710 5712 5715 5717 5719 5721 5723 5726 5728 5731 5733 5735 5736
5509 5508 5508 5508 5508 5509 5510 5511 5512 5514 5517 5519 5520 5522 5523 5525 5527 5529 5531 5533 5534 5538 5541 5544 5547 5550 5552 5554 5556 5558 5560 5562 5564 5567 5570 5572 5575 5579 5582 5585 5588 5591 5594 5597 5600 5604 5609 5613 5617 5620 5624 5627 5631 5635 5639 5643 5646 5650 5654 5658 5662 5665 5669 5672 5675 5679 5682 5685 5688 5691 5694 5696 5699 5702 5704 5707 5709 5712 5714 5716 5718 5721 5723 5725 5727 5729 5731 5733
5514 5513 5514 5514 5514 5514 5515 5516 5518 5519 5521 5523 5524 5526 5527 5529 5530 5532 5534 5536 5538 5541 5544 5546 5548 5551 5554 5555 5557 5559 5562 5564 5565 5568 5570 5573 5576 5579 5582 5585 5588 5591 5593 5596 5599 5604 5608 5612 5615 5619 5623 5627 5630 5634 5637 5641 5645 5648 5652 5656 5660 5663 5666 5670 5673 5677 5680 5683 5685 5688 5691 5694 5697 5699 5702 5704 5706 5709 5711 5713 5715 5717 5720 5722 5724 5726 5728 5730
5519 5519 5519 5520 5520 5520 5521 5522 5523 5524 5525 5526 5528 5530 5531 5533 5534 5536 5537 5539 5541 5543 5546 5547 5550 5552 5555 5557 5559 5561 5563 5565 5566 5569 5571 5574 5577 5580 5583 5585 5588 5590 5593 5595 5599 5603 5607 5611 5614 5617 5621 5625 5629 5632 5636 5639 5643 5646 5650 5654 5658 5661 5665 5668 5671 5675 5677 5680 5683 5686 5690 5693 5695 5697 5699 5702 5704 5706 5708 5710 5712 5714 5716 5718 5720 5722 5725 5727